USA 324

Last updated on Wed Oct 22 2025 00:02:50 GMT+0000 (Coordinated Universal Time)

1 51280U 22006A 25293.76578295 .00000067 00000+0 00000+0 0 9997 2 51280 0.1916 80.0148 0000628 145.2795 79.8861 1.00676150 13734
UTC large
Height (km)
Speed (km/s)
/
Latitude / Longitude
Inclination (degrees)
Orbital Period (minutes)
Azimuth
Elevation
Range (km)
Doppler Factor

Next 0 passes for location: London (51.5072 / 0.1276)

Sorry there are no passes over London.